(369901) = 2006 BM87 = 2010 FX10 = 2012 UA50

Discovered at Kitt Peak on 2006-01-25 by Spacewatch.

Orbit

Orbit type: Main Belt

Note: WebGL enabled browser required.

epoch2023-09-13.0
epoch JD2460200.5
perihelion date2020-11-09.86734
perihelion JD2459163.36734
argument of perihelion (°)351.63421
ascending node (°)108.83155
inclination (°)3.47224
eccentricity0.1439763
perihelion distance (AU)2.0715345
Tisserand w.r.t. Jupiter3.5
ΔV w.r.t. Earth (km/sec)9.0
semimajor axis (AU)2.4199498
mean anomaly (°)271.53675
mean daily motion (°/day)0.26181490
aphelion distance (AU)2.768
period (years)3.76
P-vector [x]-0.18190071
P-vector [y]0.90564450
P-vector [z]0.38304070
Q-vector [x]-0.98164465
Q-vector [y]-0.18995582
Q-vector [z]-0.01704625
absolute magnitude18.07
phase slope0.15
uncertainty0
referenceMPO 779616
observations used157
oppositions12
arc length (days)8452
first opposition used2000
last opposition used2023
residual rms (arc-secs)0.72
perturbers coarse indicatorM-v
perturbers precise indicator003Ek
first observation date used2000-08-25.0
last observation date used2023-10-16.0
computer nameMPCLINUX
JD of orbit computation2456819.594804
perihelion JD uncertainty (days)1.4876E-04
argument of perihelion uncertainty (°)1.1327E-04
ascending node uncertainty (°)1.0647E-04
inclination uncertainty (°)4.2088E-06
eccentricity uncertainty 4.0007E-08
perihelion distance uncertainty (AU)1.0679E-07
Minimum Orbit Intersection Distances (in AU)
for orbit epoch: 2460200.5, reference: E2023-U59
Mercury1.75984
Venus1.35296
Earth1.08714
Mars0.45357
Jupiter2.36972
Saturn6.9661
Uranus16.1325
Neptune27.4094

Observations

162 total observations over interval: 2000 08 25.03876 – 2023 10 16.296720
These data are available for download (format description).

Date (UT) J2000 RA J2000 Dec Magn Location Ref
2000 08 25.03876 20 50 42.04 -20 23 54.4 21.2 R 807 – Cerro Tololo Observatory, La Serena MPS 472658
2000 08 25.10181 20 50 38.86 -20 24 09.0   807 – Cerro Tololo Observatory, La Serena MPS 472658
2006 01 25.24316 09 46 02.65 +16 22 56.7   691 – Steward Observatory, Kitt Peak-Spacewatch MPS 161984
2006 01 25.26051 09 46 01.81 +16 23 03.4   691 – Steward Observatory, Kitt Peak-Spacewatch MPS 161984
2006 01 25.27778 09 46 00.98 +16 23 10.7   691 – Steward Observatory, Kitt Peak-Spacewatch MPS 161984
2006 01 28.31050 09 43 31.65 +16 43 29.6 20.6 V G96 – Mt. Lemmon Survey MPS 161984
2006 01 28.31661 09 43 31.29 +16 43 32.0 20.6 V G96 – Mt. Lemmon Survey MPS 161984
2006 01 28.32270 09 43 31.00 +16 43 34.7 20.8 V G96 – Mt. Lemmon Survey MPS 161984
2006 01 28.32880 09 43 30.64 +16 43 37.2 20.6 V G96 – Mt. Lemmon Survey MPS 161984
2006 01 30.23715 09 41 51.66 +16 56 37.8 20.9 V 691 – Steward Observatory, Kitt Peak-Spacewatch MPS 161984
2006 01 30.25444 09 41 50.69 +16 56 45.1 20.9 V 691 – Steward Observatory, Kitt Peak-Spacewatch MPS 161984
2006 01 30.27177 09 41 49.73 +16 56 52.1 20.4 V 691 – Steward Observatory, Kitt Peak-Spacewatch MPS 161984
2006 02 24.10731 09 19 05.24 +19 29 00.5 20.9 V 691 – Steward Observatory, Kitt Peak-Spacewatch MPS 460623
2006 02 24.11514 09 19 04.89 +19 29 02.8 20.9 V 691 – Steward Observatory, Kitt Peak-Spacewatch MPS 460623
2006 02 24.12530 09 19 04.36 +19 29 05.6 20.6 V 691 – Steward Observatory, Kitt Peak-Spacewatch MPS 460623
2006 02 24.13314 09 19 03.98 +19 29 07.9 20.4 V 691 – Steward Observatory, Kitt Peak-Spacewatch MPS 460623
2006 02 24.14330 09 19 03.49 +19 29 10.8 20.7 V 691 – Steward Observatory, Kitt Peak-Spacewatch MPS 460623
2006 02 24.15113 09 19 03.11 +19 29 12.9 20.7 V 691 – Steward Observatory, Kitt Peak-Spacewatch MPS 460623
2008 09 04.35939 00 48 58.83 -00 29 20.0 21.2 V 691 – Steward Observatory, Kitt Peak-Spacewatch MPS 472658
2008 09 04.37695 00 48 58.24 -00 29 26.0 21.3 V 691 – Steward Observatory, Kitt Peak-Spacewatch MPS 472658
2008 09 04.39452 00 48 57.65 -00 29 31.8 21.3 V 691 – Steward Observatory, Kitt Peak-Spacewatch MPS 472658
2008 09 24.33701 00 34 24.52 -02 32 31.3 20.8 V G96 – Mt. Lemmon Survey MPS 472658
2008 09 24.34595 00 34 24.02 -02 32 34.8 20.9 V G96 – Mt. Lemmon Survey MPS 472658
2008 09 24.35485 00 34 23.52 -02 32 38.7 20.7 V G96 – Mt. Lemmon Survey MPS 472658
2008 09 24.36368 00 34 23.05 -02 32 41.9 20.8 V G96 – Mt. Lemmon Survey MPS 472658
2010 03 16.17975 12 03 50.25 +05 46 34.6 20.7 V 691 – Steward Observatory, Kitt Peak-Spacewatch MPS 319526
2010 03 16.19740 12 03 49.28 +05 46 42.5 20.7 V 691 – Steward Observatory, Kitt Peak-Spacewatch MPS 319526
2010 03 16.21504 12 03 48.27 +05 46 49.4 20.8 V 691 – Steward Observatory, Kitt Peak-Spacewatch MPS 319526
2010 03 20.18490 12 00 10.11 +06 13 04.3 20.9 V 691 – Steward Observatory, Kitt Peak-Spacewatch MPS 319526
2010 03 20.20258 12 00 09.07 +06 13 11.0 21.2 V 691 – Steward Observatory, Kitt Peak-Spacewatch MPS 319526
2010 03 20.22026 12 00 08.08 +06 13 18.0 20.3 V 691 – Steward Observatory, Kitt Peak-Spacewatch MPS 319526
2012 10 08.32471 02 59 02.96 +11 02 15.1 21.2 V 691 – Steward Observatory, Kitt Peak-Spacewatch MPS 457637
2012 10 08.34239 02 59 02.37 +11 02 11.7 21.3 V 691 – Steward Observatory, Kitt Peak-Spacewatch MPS 457637
2012 10 08.36005 02 59 01.77 +11 02 07.7 21.4 V 691 – Steward Observatory, Kitt Peak-Spacewatch MPS 457637
2012 10 18.391275 02 52 26.884 +10 23 27.10 20.8 w F51 – Pan-STARRS 1, Haleakala MPS 438143
2012 10 18.406430 02 52 26.129 +10 23 23.43 20.8 w F51 – Pan-STARRS 1, Haleakala MPS 438143
2012 10 18.421606 02 52 25.387 +10 23 19.70 21.2 w F51 – Pan-STARRS 1, Haleakala MPS 438143
2012 10 18.436897 02 52 24.628 +10 23 15.96 20.8 w F51 – Pan-STARRS 1, Haleakala MPS 438143
2012 10 20.26746 02 50 56.40 +10 15 36.5 20.9 V 691 – Steward Observatory, Kitt Peak-Spacewatch MPS 438143
2012 10 20.28515 02 50 55.49 +10 15 32.8 20.7 V 691 – Steward Observatory, Kitt Peak-Spacewatch MPS 438143
2012 10 20.30282 02 50 54.54 +10 15 27.7 20.7 V 691 – Steward Observatory, Kitt Peak-Spacewatch MPS 438143
2012 11 04.32542 02 36 56.73 +09 12 36.6 20.4 V G96 – Mt. Lemmon Survey MPS 457637
2012 11 04.33248 02 36 56.26 +09 12 34.9 20.2 V G96 – Mt. Lemmon Survey MPS 457637
2012 11 04.33947 02 36 55.87 +09 12 33.5 20.0 V G96 – Mt. Lemmon Survey MPS 457637
2012 11 04.34644 02 36 55.44 +09 12 31.9 20.1 V G96 – Mt. Lemmon Survey MPS 457637
2014 04 23.05048 13 53 38.90 -05 34 16.6 21.2 V W84 – Cerro Tololo-DECam MPS 790111
2014 04 23.05363 13 53 38.71 -05 34 15.7   W84 – Cerro Tololo-DECam MPS 790111
2014 04 23.05682 13 53 38.53 -05 34 14.9   W84 – Cerro Tololo-DECam MPS 790111
2014 04 23.06001 13 53 38.35 -05 34 14.0   W84 – Cerro Tololo-DECam MPS 790111
2014 04 23.06314 13 53 38.17 -05 34 13.1   W84 – Cerro Tololo-DECam MPS 790111
2014 04 24.07016 13 52 41.43 -05 29 34.5 21.4   W84 – Cerro Tololo-DECam MPS 790111
2014 04 24.07340 13 52 41.24 -05 29 33.6   W84 – Cerro Tololo-DECam MPS 790111
2014 04 24.07659 13 52 41.06 -05 29 32.8   W84 – Cerro Tololo-DECam MPS 790111
2014 04 24.07978 13 52 40.88 -05 29 31.9   W84 – Cerro Tololo-DECam MPS 790111
2014 04 24.08304 13 52 40.69 -05 29 31.0   W84 – Cerro Tololo-DECam MPS 790111
2014 04 24.35271 13 52 25.500 -05 28 22.17 20.8 w F51 – Pan-STARRS 1, Haleakala MPS 512429
2014 04 24.36395 13 52 24.831 -05 28 19.47 21.1 w F51 – Pan-STARRS 1, Haleakala MPS 512429
2014 04 24.37521 13 52 24.207 -05 28 15.48 20.9 w F51 – Pan-STARRS 1, Haleakala MPS 512429
2014 04 25.06932 13 51 45.48 -05 25 03.3 21.4 V W84 – Cerro Tololo-DECam MPS 790111
2014 04 25.07258 13 51 45.29 -05 25 02.4   W84 – Cerro Tololo-DECam MPS 790111
2014 04 25.07575 13 51 45.11 -05 25 01.6   W84 – Cerro Tololo-DECam MPS 790111
2014 04 25.07897 13 51 44.92 -05 25 00.8   W84 – Cerro Tololo-DECam MPS 790111
2014 04 25.08220 13 51 44.74 -05 24 59.9   W84 – Cerro Tololo-DECam MPS 790111
2014 05 18.28572 13 33 59.003 -04 16 03.76 21.6 w F51 – Pan-STARRS 1, Haleakala MPS 516396
2014 05 18.29698 13 33 58.629 -04 16 02.99 21.9 w F51 – Pan-STARRS 1, Haleakala MPS 516396
2014 05 18.30823 13 33 58.245 -04 16 02.04 21.8 w F51 – Pan-STARRS 1, Haleakala MPS 516396
2015 07 19.47154 20 52 18.376 -19 09 27.89 21.6 w F51 – Pan-STARRS 1, Haleakala MPS 617526
2015 07 19.48290 20 52 17.749 -19 09 31.32 21.6 w F51 – Pan-STARRS 1, Haleakala MPS 617526
2015 07 19.49430 20 52 17.130 -19 09 34.83 21.8 w F51 – Pan-STARRS 1, Haleakala MPS 617526
2015 07 19.50567 20 52 16.504 -19 09 37.89 22.0 w F51 – Pan-STARRS 1, Haleakala MPS 617526
2015 08 10.37828 20 31 23.978 -20 54 03.98 21.7 w F51 – Pan-STARRS 1, Haleakala MPS 621060
2015 08 10.38926 20 31 23.351 -20 54 07.25 21.7 w F51 – Pan-STARRS 1, Haleakala MPS 621060
2015 08 10.40025 20 31 22.690 -20 54 09.61 21.9 w F51 – Pan-STARRS 1, Haleakala MPS 621060
2015 08 10.41126 20 31 22.073 -20 54 12.46 21.9 w F51 – Pan-STARRS 1, Haleakala MPS 621060
2015 08 11.32940 20 30 30.615 -20 58 05.95 21.5 w F51 – Pan-STARRS 1, Haleakala MPS 621060
2015 08 11.35134 20 30 29.364 -20 58 11.45 21.6 w F51 – Pan-STARRS 1, Haleakala MPS 621060
2015 08 11.36233 20 30 28.699 -20 58 14.39 21.8 w F51 – Pan-STARRS 1, Haleakala MPS 621060
2015 08 12.42044 20 29 29.769 -21 02 38.61 21.7 w F51 – Pan-STARRS 1, Haleakala MPS 621060
2015 08 12.43147 20 29 29.147 -21 02 41.37 21.5 w F51 – Pan-STARRS 1, Haleakala MPS 621060
2015 08 12.45349 20 29 27.894 -21 02 47.04 21.8 w F51 – Pan-STARRS 1, Haleakala MPS 621060
2016 12 04.32453 05 38 06.55 +20 06 43.3 20.0 V G96 – Mt. Lemmon Survey MPS 751763
2016 12 04.32881 05 38 06.31 +20 06 43.9 20.2 V G96 – Mt. Lemmon Survey MPS 751763
2016 12 04.33309 05 38 06.04 +20 06 43.8 20.5 V G96 – Mt. Lemmon Survey MPS 751763
2016 12 04.33739 05 38 05.74 +20 06 44.2 19.9 V G96 – Mt. Lemmon Survey MPS 751763
2016 12 18.39050 05 23 25.25 +20 23 50.2 20.1 V G96 – Mt. Lemmon Survey MPS 753707
2016 12 18.39481 05 23 24.96 +20 23 50.7 20.0 V G96 – Mt. Lemmon Survey MPS 753707
2016 12 18.39911 05 23 24.67 +20 23 51.0 20.1 V G96 – Mt. Lemmon Survey MPS 753707
2016 12 18.40339 05 23 24.40 +20 23 51.3 19.9 V G96 – Mt. Lemmon Survey MPS 753707
